This demonstration page uses our WeatherBlox Daily Observations layout. Learn more.

Left ArrowRight Arrow

Hourly Observations for April 11, 2021

Temp ( °F °C ) Dew Point ( °F °C ) Humidity (%) Winds ( mph kmh ) Pressure ( in mb ) Visibility ( mi km ) Precip ( " mm )
12:53 am 00:53 Clear 45 7.2 27 -2.8 49 49 S 6 9 29.67 1005 10 16 0.00 0.00
1:53 am 01:53 Clear 44 6.7 27 -2.8 51 51 SSW 6 9 29.66 1005 10 16 0.00 0.00
2:53 am 02:53 Clear 42 5.6 27 -2.8 55 55 S 6 9 29.64 1004 10 16 0.00 0.00
3:53 am 03:53 Clear 42 5.6 27 -2.8 55 55 S 7 11 29.61 1003 10 16 0.00 0.00
4:53 am 04:53 Clear 41 5 26 -3.3 55 55 S 5 7 29.60 1003 10 16 0.00 0.00
5:53 am 05:53 Clear 39 3.9 27 -2.8 62 62 SE 6 9 29.58 1002 10 16 0.00 0.00
6:53 am 06:53 Clear 40 4.4 27 -2.8 60 60 SE 9 15 29.57 1001 10 16 0.00 0.00
7:53 am 07:53 Sunny 40 4.4 28 -2.2 63 63 SSE 7 11 29.58 1002 10 16 0.00 0.00
8:53 am 08:53 Sunny 43 6.1 31 -0.6 63 63 SSW 5 7 29.60 1002 10 16 0.00 0.00
9:53 am 09:53 Sunny 49 9.4 32 0 52 52 WNW 14 22 29.60 1002 10 16 0.00 0.00
10:53 am 10:53 Sunny 52 11.1 34 1.1 50 50 NW 24 39 29.63 1004 10 16 0.00 0.00
11:53 am 11:53 Sunny 56 13.3 38 3.3 51 51 NW 28 44 29.66 1004 10 16 0.00 0.00
12:53 pm 12:53 Sunny 59 15 38 3.3 46 46 NW 28 44 29.66 1005 10 16 0.00 0.00
1:53 pm 13:53 Sunny 60 15.6 38 3.3 44 44 NW 29 46 29.69 1005 10 16 0.00 0.00
2:53 pm 14:53 Sunny 61 16.1 38 3.3 43 43 NNW 33 54 29.71 1006 10 16 0.00 0.00
3:53 pm 15:53 Sunny 60 15.6 36 2.2 41 41 NNW 35 56 29.70 1006 10 16 0.00 0.00
5:53 pm 17:53 Sunny 58 14.4 32 0 38 38 NNW 32 52 29.77 1008 10 16 0.00 0.00
6:53 pm 18:53 Sunny 56 13.3 33 0.6 42 42 N 25 41 29.80 1009 10 16 0.00 0.00
7:53 pm 19:53 Sunny 52 11.1 32 0 47 47 N 15 24 29.83 1010 10 16 0.00 0.00
8:53 pm 20:53 Clear 48 8.9 33 0.6 56 56 N 9 15 29.86 1011 10 16 0.00 0.00
9:53 pm 21:53 Clear 44 6.7 33 0.6 65 65 N 8 13 29.88 1012 10 16 0.00 0.00
10:53 pm 22:53 Clear 46 7.8 27 -2.8 47 47 NNW 16 26 29.92 1013 10 16 0.00 0.00
11:53 pm 23:53 Clear 45 7.2 28 -2.2 52 52 NNW 22 35 29.96 1015 10 16 0.00 0.00

Powered by AerisWeather